Regional Weather Roundup
Issued by NWS

Home | Current Version | Previous Version | Text Only | Print | Product List | Glossary On
Versions: 1 2 3 4 5 6 7 8 9 10 11 12 13 14 15 16 17 18 19 20 21 22 23 24 25 26 27 28 29 30 31 32 33 34 35 36 37 38 39 40 41 42 43 44 45 46 47 48 49 50
000
ASUS44 KLUB 290510
RWRTX
WEST TEXAS WEATHER ROUNDUP
NATIONAL WEATHER SERVICE LUBBOCK TX
1100 PM CST SUN DEC 28 2014

NOTE: "FAIR" INDICATES FEW OR NO CLOUDS BELOW 12,000 FEET WITH NO
SIGNIFICANT WEATHER AND/OR OBSTRUCTIONS TO VISIBILITY.

TXZ004-006>008-010-012-014-016-OKZ002-290600-
TEXAS PANHANDLE/OKLAHOMA PANHANDLE

CITY           SKY/WX    TMP DP  RH WIND       PRES   REMARKS
AMARILLO       PTCLDY    33  10  38 CALM      29.94R
BORGER         PTCLDY    29  11  47 NE6       29.95R WCI  23
CANADIAN       CLEAR     28  23  84 CALM      29.99R
DALHART        PTCLDY    27  17  66 NW7       29.95S WCI  19
DUMAS          PTCLDY    24  13  63 NW5       29.95R WCI  18
GUYMON         CLEAR     21  15  78 CALM      29.96R
HEREFORD       MOCLDY    33  12  41 W6        29.95R WCI  27
PAMPA          PTCLDY    26  21  84 SE8       29.95R WCI  17
PERRYTON       CLEAR     24  19  83 SE7       29.97R WCI  16
$$

TXZ026-029-035-045-048-290600-
SOUTHERN PANHANDLE/SOUTH PLAINS/ROLLING PLAINS

CITY           SKY/WX    TMP DP  RH WIND       PRES   REMARKS
CHILDRESS      PTCLDY    35  27  72 S12       29.98S WCI  27
SEMINOLE       PTCLDY    38  28  68 SW12      30.04R WCI  30
LUBBOCK        MOCLDY    39  26  59 W12       29.98S WCI  32
PLAINVIEW      PTCLDY    37  23  56 SW9       29.95S WCI  31
SNYDER         CLEAR     37  26  65 S7        30.04S WCI  31
$$

TXZ052-054-060>062-072-078-127-140-154-169-290600-
PERMIAN BASIN/CONCHO VALLEY/BIG COUNTRY/EDWARDS PLATEAU

CITY           SKY/WX    TMP DP  RH WIND       PRES   REMARKS
ABILENE        CLEAR     38  27  64 S10       30.06F WCI  31
BIG SPRING     CLEAR     41  26  55 S12       30.07S
BRADY          CLEAR     37  27  65 SE6       30.09F WCI  33
BROWNWOOD      PTCLDY    36  25  64 CALM      30.12S
JUNCTION       CLEAR     32  29  88 CALM      30.12S
MIDLAND        PTCLDY    41  29  62 SW7       30.05S
ODESSA         PTCLDY    39  28  64 SW6       30.05F WCI  35
SAN ANGELO     CLEAR     34  28  79 S7        30.09S WCI  28
SONORA         CLEAR     39  32  75 CALM      30.14F
SWEETWATER     CLEAR     44  26  50 SW15      30.07S
WINK           CLOUDY    43  27  53 SW6       30.05S
$$

TXZ055-058-074-075-080-082-290600-
FAR WEST/SOUTHWEST MOUNTAINS/TRANS PECOS

CITY           SKY/WX    TMP DP  RH WIND       PRES   REMARKS
ALPINE         CLEAR     39  29  67 W10       30.16R WCI  32
DRYDEN           N/A     39  31  72 N6        30.08F WCI  35
EL PASO        MOCLDY    40  28  62 S5        30.11S
FORT STOCKTON  PTCLDY    41  31  67 SW14      30.07S
MARFA          CLEAR     27  21  80 CALM      30.15S
PECOS          PTCLDY    40  30  65 SW7       30.07S
PRESIDIO       FAIR      40  30  67 N6        30.14R
$$

TXZ014-016-019-021>030-083-290600
TEXAS TECH WEST TEXAS MESONET/TEXAS PANHANDLE/NORTHERN SOUTH PLAINS

CITY           SKY/WX    TMP DP  RH WIND       PRES   REMARKS
ABERNATHY 5ENE   N/A     37  28  68 SW14      29.98S WCI  29
AMARILLO 9NNE    N/A     25   9  51 NW1       29.95R
AMARILLO 7SSE    N/A     30  11  44 NW8       29.94S WCI  23
AMHERST 1NE      N/A     35  14  42 SW5       29.98S WCI  31
BOOTLEG 11WNW    N/A     34   9  35 W12       29.97R WCI  25
CANADIAN 6E      N/A     24  20  87 E9        29.97S WCI  14
CHILDRESS 2NNE   N/A     35  28  74 S12       29.97S WCI  27
CLARENDON 2WSW   N/A     34  15  46 SW10      29.94R WCI  26
CLAUDE 12SW      N/A     35   4  27 W1        29.94S
DIMMITT 2NE      N/A     36   6  28 SW13      29.95R WCI  27
FLOYDADA 2NNE    N/A     35  25  66 SW12      29.96S WCI  27
FRIONA 2NE       N/A     38   7  27 W15       29.96R WCI  30
GOODLETT 3W      N/A     33  27  78 SE7       29.98F WCI  26
HART 3N          N/A     34  11  39 SW10      29.95S WCI  26
HEREFORD 2NW     N/A     34   7  32 W10       29.94R WCI  26
MCLEAN 1E        N/A     29  25  85 E6        29.93S WCI  22
MEMPHIS 1NE      N/A     31  24  76 SE3       29.96F
MULESHOE 2SSW    N/A     39  11  31 W15       29.97S WCI  31
OLTON 6S         N/A     36  15  43 SW12      29.97S WCI  27
PALO DURO SP     N/A     30   4  33 SW2       29.96S
PAMPA 2E         N/A     25  22  87 SE7       29.94R WCI  17
PLAINVIEW 1S     N/A     37  23  57 SW8       29.96S WCI  30
SILVERTON 7ESE   N/A     35  25  65 SW15      29.95S WCI  26
TULIA 2ENE       N/A     34  12  40 SW9       29.96R WCI  27
TURKEY 2WSW      N/A     40  27  59 SW16      29.94F WCI  32
UMBARGER 3NNE    N/A     29   9  42 W6        29.95R WCI  23
$$

TXZ033>036-039>041-045>048-290600
TEXAS TECH WEST TEXAS MESONET/SOUTH PLAINS

CITY           SKY/WX    TMP DP  RH WIND       PRES   REMARKS
AIKEN 3WSW       N/A     35  25  67 SW10      29.97S WCI  27
ANDREWS 2NE      N/A     41  27  57 SW12      30.04S
ANTON 6SSW       N/A     37  28  70 SW9       29.99S WCI  31
BROWNFIELD 2S    N/A     34  26  73 SW10      30.00S WCI  26
DENVR CTY 7WNW   N/A     33  26  74 SW13      30.01S WCI  24
GAIL 2ESE        N/A     37  29  74 SW9       30.02S WCI  30
LAMESA 2SE       N/A     35  29  79 SW9       30.03S WCI  28
LEVELLAND 4S     N/A     32  26  77 SW7       29.99S WCI  26
LUBBOCK 3WNW     N/A     37  25  60 SW9       30.00R WCI  31
MORTON 1ENE      N/A     38  19  46 W3        29.99R
ODONNELL 1N      N/A     34  27  74 SW8       30.02R WCI  27
PLAINS 3N        N/A     35  26  69 W8        30.01S WCI  29
RALLS 1SE        N/A     37  25  61 SW10      29.99S WCI  30
REESE CENTER     N/A     36  27  68 SW10      29.99S WCI  29
SEAGRAVES 1SW    N/A     33  28  81 SW9       30.01S WCI  26
SEMINOLE 2NNE    N/A     38  28  68 SW10      30.02S WCI  30
SLATON 2NE       N/A     39  27  62 SW15      29.99S WCI  30
SNYDER 3E        N/A     37  27  67 SE7       30.03S WCI  31
SUNDOWN 8SW      N/A     36  26  66 SW13      29.99S WCI  28
TAHOKA 3NNE      N/A     34  26  73 SW8       30.01S WCI  27
WOLFFORTH 6SSW   N/A     32  27  81 SW7       30.01R WCI  26
$$

TXZ031-032-036>038-042>044-290600-
TEXAS TECH WEST TEXAS MESONET/ROLLING PLAINS

CITY           SKY/WX    TMP DP  RH WIND       PRES   REMARKS
ASPERMONT 3NE    N/A     36  29  74 SE8       30.03S WCI  30
FLUVANNA 3WNW    N/A     39  28  66 S13       30.01F WCI  31
GRAHAM 5SSW      N/A     39  27  62 W9        30.01R WCI  33
GUTHRIE 10WSW    N/A     36  27  68 SW7       30.00S WCI  31
HASKELL 1NW      N/A     38  28  67 S7        30.04S WCI  32
JAYTON 1SSE      N/A     38  28  67 SW8       30.02S WCI  32
KNOX CITY 3NW    N/A     36  28  72 S10       30.03S WCI  29
LK A HENRY 1NW   N/A     41  29  60 S7        30.01F
NORTHFIELD 1S    N/A     41  28  59 S9        29.96F
ODELL 4ENE       N/A     36  28  72 SE13      30.03F WCI  27
PADUCAH 10SW     N/A     36  28  72 S13       29.99S WCI  28
POST 1NE         N/A     42  27  55 SW9       30.00S
RRING SPRGS 3N   N/A     37  27  67 S5        29.99R WCI  33
SEYMOUR 3NW      N/A     38  28  66 SE12      30.04S WCI  31
SPUR 1W          N/A     35  27  73 SW5       30.00S WCI  30
WHITE RVR 6NE    N/A     38  26  62 S8        29.99S WCI  32
$$

TXZ052-054-060>062-072-078-127-140-154-169-290600-
TEXAS TECH WEST TEXAS MESONET/PERMIAN BASIN/
CONCHO VALLEY/BIG COUNTRY/EDWARDS PLATEAU

CITY           SKY/WX    TMP DP  RH WIND       PRES   REMARKS
COYANOSA 2N      N/A     35  28  74 W2        30.08S
JUNCTION 1SSW    N/A     32  29  86 S6        30.13F WCI  27
MERTZON 3NNE     N/A     40  31  69 S9        30.09S WCI  34
SAN ANGELO 7NW   N/A     37  27  67 S1        30.09S
STRLNG CT 4WSW   N/A     40  29  65 SW9       30.07F WCI  34
ST LAWRNCE 5SW   N/A     35  26  67 S8        30.07S WCI  29
SWEETWATR 11SW   N/A     37  26  63 S9        30.06S WCI  30
WALL 1E          N/A     39  29  68 SW10      30.09S WCI  32
$$

TXZ055-058-074-075-080-082-290600-
TEXAS TECH WEST TEXAS MESONET/FAR WEST/SOUTHWEST MOUNTAINS/TRANS PECOS

CITY           SKY/WX    TMP DP  RH WIND       PRES   REMARKS
PRSMN GAP BBNP   N/A     42  30  62 S5        30.11S
GUADLPE MTN NP   N/A     44   1  16 W14       30.06F
$$



USA.gov is the U.S. government's official web portal to all federal, state and local government web resources and services.